EA7RX-13 Weather Reports


Display with metric or nautical units.
time (UTC)temp
F
wind
direction
speed
MPH
gust
MPH
rain 1hr
in
rain 24hr
in
rain mn
in
humidity
%
barometer
mb
20260831141630 101 0.0 0.0 0.00 0.00 0.00 24 1012.1
20260831140630 101 0.0 0.0 0.00 0.00 0.00 25 1012.4
20260831135630 102 0.0 0.0 0.00 0.00 0.00 24 1012.5
20260831134630 103 0.0 0.0 0.00 0.00 0.00 24 1012.4
20260831133630 102 0.0 0.0 0.00 0.00 0.00 24 1012.6
20260831132630 101 0.0 0.0 0.00 0.00 0.00 25 1012.7
20260831131630 100 0.0 0.0 0.00 0.00 0.00 25 1012.9
20260831130630 101 0.0 0.0 0.00 0.00 0.00 25 1012.9
20260831125630 101 0.0 0.0 0.00 0.00 0.00 24 1013.0
20260831124630 101 0.0 0.0 0.00 0.00 0.00 25 1013.1
20260831123630 100 0.0 0.0 0.00 0.00 0.00 25 1013.4
20260831122630 100 0.0 0.0 0.00 0.00 0.00 25 1013.4
20260831121630 97 0.0 0.0 0.00 0.00 0.00 27 1013.8
20260831120630 98 0.0 0.0 0.00 0.00 0.00 27 1013.8
20260831115631 97 0.0 0.0 0.00 0.00 0.00 28 1013.9
20260831114629 98 0.0 0.0 0.00 0.00 0.00 29 1014.0
20260831113630 97 0.0 0.0 0.00 0.00 0.00 29 1014.3
20260831112629 96 0.0 0.0 0.00 0.00 0.00 30 1014.4
20260831111629 96 0.0 0.0 0.00 0.00 0.00 30 1014.5
20260831110629 94 0.0 0.0 0.00 0.00 0.00 31 1014.7
20260831105629 94 0.0 0.0 0.00 0.00 0.00 32 1014.7
20260831104629 91 0.0 0.0 0.00 0.00 0.00 34 1015.1
20260831103630 91 0.0 0.0 0.00 0.00 0.00 35 1015.3
20260831102629 89 0.0 0.0 0.00 0.00 0.00 36 1015.4
20260831101629 89 0.0 0.0 0.00 0.00 0.00 37 1015.5
20260831100629 88 0.0 0.0 0.00 0.00 0.00 37 1015.6
20260831095629 87 0.0 0.0 0.00 0.00 0.00 37 1015.7
20260831094629 87 0.0 0.0 0.00 0.00 0.00 39 1015.8
20260831093629 85 0.0 0.0 0.00 0.00 0.00 39 1015.9
20260831092629 84 0.0 0.0 0.00 0.00 0.00 39 1016.1
20260831091629 84 0.0 0.0 0.00 0.00 0.00 39 1016.1
20260831090629 84 0.0 0.0 0.00 0.00 0.00 41 1016.2
20260831085629 83 0.0 0.0 0.00 0.00 0.00 40 1016.2
20260831084629 82 0.0 0.0 0.00 0.00 0.00 42 1016.2
20260831083629 81 0.0 0.0 0.00 0.00 0.00 41 1016.3
20260831082629 80 0.0 0.0 0.00 0.00 0.00 49 1016.4
20260831081629 79 0.0 0.0 0.00 0.00 0.00 48 1016.6
20260831080629 78 0.0 0.0 0.00 0.00 0.00 50 1016.6
20260831075629 77 0.0 0.0 0.00 0.00 0.00 53 1016.5
20260831074629 76 0.0 0.0 0.00 0.00 0.00 51 1016.6
20260831073629 74 0.0 0.0 0.00 0.00 0.00 53 1016.7
20260831072629 72 0.0 0.0 0.00 0.00 0.00 58 1016.9
20260831071629 70 0.0 0.0 0.00 0.00 0.00 63 1017.0
20260831070629 69 0.0 0.0 0.00 0.00 0.00 59 1017.1
20260831065629 68 0.0 0.0 0.00 0.00 0.00 60 1017.1
20260831064629 68 0.0 0.0 0.00 0.00 0.00 62 1017.2
20260831063629 67 0.0 0.0 0.00 0.00 0.00 60 1017.1
20260831062629 67 0.0 0.0 0.00 0.00 0.00 59 1017.1
20260831061629 67 0.0 0.0 0.00 0.00 0.00 59 1016.9
20260831060629 66 0.0 0.0 0.00 0.00 0.00 60 1016.9
20260831055629 67 0.0 0.0 0.00 0.00 0.00 59 1016.7
20260831054629 67 0.0 0.0 0.00 0.00 0.00 58 1016.7
20260831053629 67 0.0 0.0 0.00 0.00 0.00 59 1016.6
20260831052629 66 0.0 0.0 0.00 0.00 0.00 59 1016.5
20260831051629 67 0.0 0.0 0.00 0.00 0.00 59 1016.6
20260831050629 67 0.0 0.0 0.00 0.00 0.00 57 1016.6
20260831045629 67 0.0 0.0 0.00 0.00 0.00 57 1016.6
20260831044629 67 0.0 0.0 0.00 0.00 0.00 58 1016.6
20260831043629 67 0.0 0.0 0.00 0.00 0.00 59 1016.6
20260831042629 68 0.0 0.0 0.00 0.00 0.00 61 1016.6
20260831041629 68 0.0 0.0 0.00 0.00 0.00 59 1016.7
20260831040629 68 0.0 0.0 0.00 0.00 0.00 57 1016.6
20260831035629 69 0.0 0.0 0.00 0.00 0.00 55 1016.5
20260831034629 69 0.0 0.0 0.00 0.00 0.00 54 1016.5
20260831033629 69 0.0 0.0 0.00 0.00 0.00 57 1016.4
20260831032629 70 0.0 0.0 0.00 0.00 0.00 55 1016.4
20260831031629 70 0.0 0.0 0.00 0.00 0.00 55 1016.3
20260831030629 71 0.0 0.0 0.00 0.00 0.00 50 1016.2
20260831025629 71 0.0 0.0 0.00 0.00 0.00 53 1016.3
20260831024629 71 0.0 0.0 0.00 0.00 0.00 50 1016.2
20260831023629 71 0.0 0.0 0.00 0.00 0.00 50 1016.2
20260831022629 72 0.0 0.0 0.00 0.00 0.00 46 1016.1
20260831021629 73 0.0 0.0 0.00 0.00 0.00 46 1015.9
20260831020629 73 0.0 0.0 0.00 0.00 0.00 47 1015.9
20260831015629 73 0.0 0.0 0.00 0.00 0.00 47 1015.9
20260831014629 72 0.0 0.0 0.00 0.00 0.00 48 1015.9
20260831013629 73 0.0 0.0 0.00 0.00 0.00 46 1015.8
20260831012629 72 0.0 0.0 0.00 0.00 0.00 47 1015.8
20260831011629 72 0.0 0.0 0.00 0.00 0.00 48 1015.8
20260831010629 72 0.0 0.0 0.00 0.00 0.00 47 1015.8
20260831005629 72 0.0 0.0 0.00 0.00 0.00 47 1015.9
20260831004629 72 0.0 0.0 0.00 0.00 0.00 48 1015.9
20260831003629 73 0.0 0.0 0.00 0.00 0.00 46 1015.8
20260831002629 73 0.0 0.0 0.00 0.00 0.00 48 1015.9
20260831001629 73 0.0 0.0 0.00 0.00 0.00 47 1015.9
20260831000629 74 0.0 0.0 0.00 0.00 0.00 43 1015.8
20260830235629 74 0.0 0.0 0.00 0.00 0.00 44 1015.8
20260830234629 74 0.0 0.0 0.00 0.00 0.00 44 1015.9
20260830233629 74 0.0 0.0 0.00 0.00 0.00 45 1015.9
20260830232629 75 0.0 0.0 0.00 0.00 0.00 43 1015.7
20260830231629 75 0.0 0.0 0.00 0.00 0.00 42 1015.8
20260830230629 76 0.0 0.0 0.00 0.00 0.00 42 1015.8
20260830225629 76 0.0 0.0 0.00 0.00 0.00 42 1015.8
20260830224629 75 0.0 0.0 0.00 0.00 0.00 43 1015.8
20260830223629 75 0.0 0.0 0.00 0.00 0.00 45 1015.8
20260830222629 76 0.0 0.0 0.00 0.00 0.00 42 1015.5
20260830221629 76 0.0 0.0 0.00 0.00 0.00 43 1015.6
20260830220629 76 0.0 0.0 0.00 0.00 0.00 41 1015.5
20260830215629 77 0.0 0.0 0.00 0.00 0.00 41 1015.3
20260830214629 76 0.0 0.0 0.00 0.00 0.00 42 1015.3
20260830213629 76 0.0 0.0 0.00 0.00 0.00 44 1015.3
20260830212629 76 0.0 0.0 0.00 0.00 0.00 44 1015.2
20260830211629 76 0.0 0.0 0.00 0.00 0.00 46 1015.2
20260830210629 77 0.0 0.0 0.00 0.00 0.00 43 1015.0
20260830205629 77 0.0 0.0 0.00 0.00 0.00 43 1015.0
20260830204629 78 0.0 0.0 0.00 0.00 0.00 41 1014.8
20260830203629 77 0.0 0.0 0.00 0.00 0.00 43 1015.0
20260830202629 79 0.0 0.0 0.00 0.00 0.00 42 1014.8
20260830201629 78 0.0 0.0 0.00 0.00 0.00 43 1014.8
20260830200629 80 0.0 0.0 0.00 0.00 0.00 41 1014.5
20260830195629 79 0.0 0.0 0.00 0.00 0.00 42 1014.5
20260830194629 80 0.0 0.0 0.00 0.00 0.00 43 1014.2
20260830193629 79 0.0 0.0 0.00 0.00 0.00 44 1014.2
20260830192624 80 0.0 0.0 0.00 0.00 0.00 41 1013.9
20260830191629 81 0.0 0.0 0.00 0.00 0.00 43 1013.8
20260830190629 82 0.0 0.0 0.00 0.00 0.00 42 1013.7
20260830185629 84 0.0 0.0 0.00 0.00 0.00 37 1013.3
20260830184629 85 0.0 0.0 0.00 0.00 0.00 34 1013.1
20260830183629 86 0.0 0.0 0.00 0.00 0.00 33 1013.0
20260830182629 88 0.0 0.0 0.00 0.00 0.00 31 1012.8
20260830181629 90 0.0 0.0 0.00 0.00 0.00 29 1012.5
20260830180629 90 0.0 0.0 0.00 0.00 0.00 31 1012.5
20260830175629 92 0.0 0.0 0.00 0.00 0.00 29 1012.4
20260830174629 94 0.0 0.0 0.00 0.00 0.00 26 1012.2
20260830173629 96 0.0 0.0 0.00 0.00 0.00 24 1011.9
20260830172629 97 0.0 0.0 0.00 0.00 0.00 24 1011.8
20260830171629 96 0.0 0.0 0.00 0.00 0.00 24 1011.9
20260830170629 97 0.0 0.0 0.00 0.00 0.00 25 1011.8
20260830165629 97 0.0 0.0 0.00 0.00 0.00 25 1011.9
20260830164629 96 0.0 0.0 0.00 0.00 0.00 25 1011.9
20260830163629 96 0.0 0.0 0.00 0.00 0.00 24 1011.9
20260830162629 96 0.0 0.0 0.00 0.00 0.00 24 1012.0
20260830161629 97 0.0 0.0 0.00 0.00 0.00 24 1011.9
20260830160629 97 0.0 0.0 0.00 0.00 0.00 24 1012.0
20260830155629 98 0.0 0.0 0.00 0.00 0.00 23 1011.9
20260830154629 98 0.0 0.0 0.00 0.00 0.00 23 1011.9
20260830153629 98 0.0 0.0 0.00 0.00 0.00 24 1012.0
20260830152629 97 0.0 0.0 0.00 0.00 0.00 23 1012.2
20260830151629 99 0.0 0.0 0.00 0.00 0.00 23 1012.1
20260830150629 100 0.0 0.0 0.00 0.00 0.00 24 1012.1
20260830145629 97 0.0 0.0 0.00 0.00 0.00 23 1012.4
20260830144629 99 0.0 0.0 0.00 0.00 0.00 24 1012.5
20260830142629 99 0.0 0.0 0.00 0.00 0.00 24 1012.6